Temperature
15 16 16 16 16 16 16 15 15 15 16 15 15 16 16 16 16 16 16 16 16 16 16 16 16 16 16 16 16 16 16 16 15 15 15 15 15 15 15 15 15 15 15
16 16 16 15 15 15 15 15 15 15 15 15 15 15 15 15 15 15 15 15 15 15 15 15 16 15 15 15 15 15 15 15 15 15 15 15 15 15 15 15 15 15 15
15 16 15 15 15 15 15 15 15 15 15 15 15 15 15 15 15 15 15 15 15 15 15 15 15 15 15 15 15 15 15 15 15 15 15 15 15 15 15 14 15 14 15
15 16 15 15 15 15 15 15 15 15 15 15 15 15 15 15 15 15 15 15 15 15 15 15 15 15 15 15 15 15 15 14 14 14 14 14 14 14 14 14 14 14 14
15 15 15 15 15 15 15 15 15 15 15 15 15 15 15 15 15 15 15 15 15 15 15 15 15 15 15 15 15 14 14 14 14 14 14 14 14 14 14 14 14 14 14
14 15 15 15 15 15 15 15 15 15 15 15 15 15 15 15 14 14 15 14 14 14 14 14 14 14 14 14 14 14 14 14 14 14 14 14 14 14 14 14 14 14 14
14 14 15 15 15 14 14 14 14 14 14 14 14 14 14 14 14 14 14 14 14 14 14 14 14 14 14 14 14 14 14 13 13 13 13 13 13 13 13 13 13 13 13
14 14 14 14 14 14 14 14 14 14 14 14 14 14 14 14 14 14 14 14 14 14 14 14 14 14 14 14 14 14 13 13 13 13 13 13 13 13 13 13 13 13 13
14 14 14 14 14 14 14 14 14 14 14 14 14 14 14 14 14 14 14 14 14 14 14 14 14 14 14 14 14 13 13 13 13 13 13 13 13 13 13 13 13 12 12
14 14 13 14 14 14 14 13 14 14 14 14 13 13 13 13 13 13 14 13 13 13 13 14 14 14 14 14 13 13 13 13 13 13 13 12 12 13 13 13 12 12 12
13 13 13 13 13 13 13 13 13 13 13 13 13 13 13 13 13 13 13 13 13 13 13 13 13 14 13 13 13 13 13 13 13 13 12 12 12 12 12 12 12 12 12
13 13 13 13 13 13 13 13 13 13 13 13 13 13 13 13 13 13 13 13 13 13 13 13 13 13 13 13 13 13 12 12 12 12 12 12 12 12 12 12 12 12 12
13 13 13 13 13 12 12 12 12 12 12 12 12 12 12 12 12 12 13 13 13 13 13 13 13 13 13 13 12 12 12 12 12 12 12 12 12 12 11 11 11 11 11
12 12 13 12 12 12 12 12 12 12 12 12 12 12 12 12 12 12 12 12 12 12 12 12 12 12 12 12 12 12 12 12 11 12 12 12 12 11 11 11 11 11 11
12 12 12 12 12 12 12 12 12 12 12 12 12 12 12 11 11 11 12 12 12 12 12 12 12 12 12 12 12 11 11 11 11 11 11 11 11 11 11 11 11 11 10
12 12 12 12 12 12 12 12 12 12 12 11 11 11 11 11 11 11 11 11 11 11 11 11 11 11 11 11 11 11 11 11 11 11 11 11 11 11 11 11 10 10 10
12 12 12 12 12 12 12 12 11 11 11 11 11 11 11 11 11 11 11 11 11 11 11 11 11 11 11 11 11 11 10 10 11 11 11 11 11 11 11 11 10 10 10
12 12 12 11 11 11 11 11 11 11 11 11 11 11 11 11 11 11 11 11 11 11 11 10 10 10 10 10 10 10 10 10 10 10 10 10 10 10 10 10 10 10 10
11 11 11 11 11 11 11 11 11 11 10 10 10 10 10 10 10 10 10 10 10 10 10 10 10 10 10 10 10 10 10 10 10 10 10 10 10 10 10 10 10 10 10
11 11 11 11 11 10 10 10 10 10 10 10 10 10 10 10 10 10 10 10 10 10 10 10 10 10 10 9 9 9 9 9 9 9 9 9 9 9 9 10 10 10 10
10 10 10 10 10 10 10 10 10 9 9 9 9 9 9 9 9 9 9 9 9 9 9 9 9 9 9 9 9 9 8 9 9 9 9 9 9 9 9 9 9 9 9
10 10 10 10 10 9 9 9 9 9 9 9 9 9 9 9 9 9 9 9 9 9 9 9 9 9 9 8 8 8 8 8 8 8 8 9 9 9 9 9 9 9 9
9 9 9 9 9 9 9 9 8 8 8 8 8 8 8 8 8 8 8 8 8 8 8 8 8 8 8 8 8 8 7 7 7 8 8 8 8 8 8 8 8 8 8
9 9 9 9 9 9 9 8 8 8 8 8 8 8 8 8 8 8 8 8 8 8 8 8 8 8 8 8 7 8 8 7 7 7 7 7 7 7 7 7 7 7 7
8 8 8 8 8 8 8 8 8 7 7 7 7 7 7 7 7 7 7 8 7 7 7 8 7 7 7 7 7 7 7 7 7 7 6 6 6 7 7 7 7 7 7
8 8 8 8 8 8 8 8 7 7 7 7 7 7 7 7 7 7 7 7 7 7 7 7 7 7 7 7 7 7 7 7 7 7 6 6 6 6 6 6 6 6 6
Wind_Speed
8 10 10 10 10 10 10 10 10 11 11 10 11 10 10 10 10 11 11 11 11 12 12 13 13 14 14 14 14 14 15 15 15 16 16 16 16 16 17 16 15 15 17
9 12 11 11 10 10 10 10 10 10 10 10 10 10 10 10 10 10 10 10 11 11 12 12 13 13 13 13 13 14 14 14 13 14 15 15 15 16 16 16 16 14 16
10 12 11 11 10 10 10 10 10 10 10 11 10 10 9 9 9 9 9 10 10 11 11 11 12 12 12 13 12 12 12 11 11 11 12 12 14 15 16 16 17 17 16
10 12 11 10 10 10 10 10 10 10 10 10 10 10 9 9 9 9 9 9 10 10 10 11 12 12 12 12 12 11 10 10 10 10 11 12 12 15 15 16 16 16 16
10 12 12 11 10 10 9 9 9 9 9 9 9 9 9 9 8 9 9 9 10 10 10 10 11 11 11 11 10 10 10 10 10 11 12 13 12 14 14 15 15 16 16
10 12 12 11 10 10 9 9 9 9 9 9 8 9 9 9 9 9 9 9 9 9 9 10 10 10 10 10 9 9 9 9 9 10 12 12 12 13 14 14 14 14 14
9 12 12 11 10 10 9 9 8 8 8 8 8 7 7 8 8 8 8 8 8 8 8 9 9 9 9 8 7 7 8 8 8 10 11 11 12 12 13 13 13 13 13
8 10 11 11 10 9 8 8 8 8 8 8 7 7 6 6 7 7 8 8 8 8 8 8 8 8 8 7 7 6 6 7 8 9 10 10 11 12 12 11 11 11 11
8 8 9 9 8 8 8 8 8 7 7 7 7 7 7 6 6 7 7 7 7 7 7 7 7 7 7 6 6 5 5 6 7 7 8 9 11 11 11 11 10 11 10
6 7 6 7 7 6 6 7 7 7 7 7 7 7 6 6 6 6 6 7 7 6 6 6 6 6 5 5 4 4 4 4 6 7 7 8 10 10 9 9 9 9 9
5 5 5 5 5 5 5 6 6 6 6 6 5 5 5 4 4 5 6 6 6 5 5 5 5 5 4 4 3 2 2 3 6 6 7 8 9 8 8 8 8 8 8
6 5 4 4 4 4 4 5 4 4 5 4 3 4 2 3 4 4 6 6 5 5 4 4 4 4 3 3 2 1 1 3 4 6 6 8 8 7 7 7 7 7 7
5 5 5 4 4 4 3 3 3 3 3 3 3 3 2 3 4 4 4 4 4 4 3 3 3 2 3 2 2 2 1 3 4 6 6 7 7 6 6 6 6 6 6
5 4 4 4 4 3 3 2 2 2 2 2 2 3 2 1 2 2 2 2 3 3 3 3 3 3 3 3 3 2 2 3 5 6 7 7 7 6 5 5 5 5 5
5 4 4 4 4 3 2 1 2 2 2 2 3 3 3 2 1 1 1 1 1 2 2 2 2 2 2 2 2 2 2 3 5 6 6 7 6 5 5 4 4 4 3
5 4 4 4 3 3 2 2 1 2 3 3 3 3 3 2 1 1 1 1 1 1 1 2 2 2 2 2 1 2 2 3 5 6 6 5 5 5 4 4 3 3 3
4 4 4 4 3 3 2 2 1 2 3 2 3 3 3 2 2 1 1 1 1 0 1 1 2 2 1 1 1 2 2 3 4 4 4 5 4 4 5 4 4 3 3
4 4 4 3 3 3 2 1 1 2 3 2 3 3 3 2 3 1 1 1 1 1 1 1 1 1 1 1 1 1 2 3 3 4 3 4 4 4 4 4 4 3 3
3 3 4 4 3 3 3 2 2 2 2 2 3 2 2 2 2 2 1 1 1 1 1 0 1 1 1 1 1 1 1 1 2 3 3 3 4 4 4 4 4 3 3
3 3 4 4 3 3 3 2 2 2 1 2 2 2 1 1 2 2 2 1 1 1 1 1 0 1 1 2 1 1 1 1 2 2 2 2 3 3 3 3 3 3 3
3 3 3 3 3 3 2 2 2 1 1 1 1 1 1 1 1 2 1 1 1 1 1 1 1 1 1 1 1 1 1 0 1 1 1 1 2 2 2 3 3 2 2
3 3 3 3 3 3 2 2 2 2 1 1 1 1 1 2 2 2 2 1 1 1 1 1 1 1 0 1 1 2 0 1 1 1 1 1 1 2 2 2 2 2 1
3 3 2 3 3 3 3 2 2 1 1 1 1 1 0 1 2 2 3 2 1 2 2 2 2 2 2 1 1 2 2 2 1 1 2 1 1 0 1 2 2 1 1
3 3 2 2 3 3 4 4 4 3 2 3 2 2 1 1 1 2 2 3 2 1 2 2 1 1 2 2 1 1 1 2 1 1 1 1 1 1 1 0 1 1 1
3 3 2 2 2 3 4 5 4 4 3 2 2 2 2 1 1 1 2 2 2 2 2 2 1 1 2 2 2 1 1 1 1 2 2 2 1 1 1 1 1 1 2
2 2 2 3 3 3 4 4 5 5 3 3 2 3 3 2 2 2 2 2 2 2 3 2 2 2 1 2 2 1 1 1 2 2 2 2 2 2 1 1 2 2 2
Wind_Direction
112 113 115 108 100 98 95 92 90 91 91 89 88 86 83 82 80 81 81 79 77 79 79 79 78 77 76 76 75 74 74 77 77 77 75 75 74 72 73 75 77 77 78
117 117 117 111 105 101 97 94 91 91 91 89 88 87 86 85 83 82 82 81 80 82 82 81 80 79 78 77 76 75 76 78 80 81 77 75 75 74 73 73 76 79 78
116 120 118 112 108 105 100 96 92 90 91 87 86 87 86 86 84 83 83 84 84 84 83 84 84 82 79 78 78 77 76 77 78 82 80 79 78 77 76 75 74 76 76
112 116 117 113 110 107 103 99 95 92 90 88 86 87 87 86 85 83 82 84 84 84 83 86 87 85 82 79 78 77 72 69 69 69 77 77 78 80 78 77 76 75 74
110 111 113 113 111 107 104 100 96 94 92 89 86 86 87 87 86 84 83 84 84 83 83 85 88 87 83 79 76 74 68 59 56 66 73 73 73 81 81 80 79 78 76
114 109 112 114 112 110 105 102 100 97 93 92 89 85 83 85 88 88 87 85 84 84 84 85 87 88 86 79 75 70 61 52 55 69 75 76 78 84 84 83 83 81 79
113 111 117 115 114 111 108 106 103 100 97 93 91 88 86 86 89 93 93 91 87 87 87 86 85 88 88 82 76 68 58 51 64 72 76 78 85 87 86 85 84 83 81
106 110 118 114 114 112 110 110 107 103 100 97 92 92 94 94 92 94 96 98 96 93 90 88 85 85 88 86 81 70 54 51 69 77 78 80 89 91 90 88 85 86 85
104 104 110 113 112 110 110 109 107 104 101 98 93 88 88 89 92 96 98 99 100 96 94 94 92 90 91 87 80 69 55 55 68 75 83 84 94 94 92 91 89 86 86
108 109 108 113 111 110 110 108 109 107 105 101 96 91 85 87 93 95 101 106 106 102 100 103 102 97 97 94 85 66 52 52 75 77 84 92 99 97 95 93 90 88 88
115 111 114 109 108 111 120 119 113 111 110 112 111 108 100 99 100 101 105 108 112 111 111 112 114 108 109 109 106 71 41 75 90 87 89 102 106 102 102 100 96 94 91
138 128 123 112 103 102 108 112 114 120 119 116 117 123 120 103 101 100 110 117 117 119 123 130 134 129 134 144 153 151 100 101 99 97 100 112 114 112 111 110 105 101 97
138 135 130 126 111 100 86 103 97 109 120 119 101 98 99 97 108 115 123 128 132 135 141 143 154 160 154 149 140 144 129 105 99 103 109 118 124 126 122 119 115 114 109
132 130 124 123 119 110 99 96 101 91 95 91 97 102 72 74 97 117 122 138 154 165 166 164 170 169 160 157 143 132 112 109 101 104 111 121 128 131 131 126 122 119 118
139 134 126 120 120 117 110 97 89 83 84 80 81 91 78 72 95 89 118 130 159 171 171 155 153 130 129 144 155 135 114 113 112 112 119 125 133 140 143 138 135 129 124
149 144 133 128 122 121 121 118 99 88 94 78 76 71 76 63 75 76 77 90 103 177 163 140 143 116 112 113 106 103 99 98 108 115 125 134 142 148 153 160 165 161 163
148 141 136 135 126 127 125 129 113 103 107 99 92 87 80 71 71 81 92 79 68 49 144 130 136 120 130 117 116 90 90 93 100 107 123 134 145 162 173 178 185 191 196
140 142 142 141 137 136 129 131 112 106 105 104 103 97 89 85 88 87 112 108 79 65 105 140 163 138 164 153 161 154 92 96 104 113 117 129 138 152 174 186 192 204 214
142 136 139 142 143 143 136 126 111 104 104 96 93 89 85 90 104 101 109 110 101 88 89 145 121 140 153 154 154 150 129 118 115 110 107 121 137 145 153 175 189 205 218
139 138 136 141 141 139 136 130 124 108 104 85 84 93 103 100 112 109 109 97 105 109 66 56 119 130 150 150 141 128 143 149 114 118 123 124 140 146 148 155 164 194 222
134 130 142 137 145 139 145 158 159 166 161 146 109 109 125 101 98 105 109 119 114 124 120 103 110 129 137 126 110 83 4 101 133 150 121 127 131 143 144 153 153 164 202
156 146 145 154 155 153 160 170 172 169 170 170 109 107 143 144 142 145 138 150 132 140 130 128 129 148 196 159 146 149 190 304 293 232 201 191 185 140 136 137 129 142 166
163 164 162 169 159 160 159 145 137 125 146 161 195 206 172 146 147 156 161 151 156 163 166 167 167 164 192 218 178 160 166 207 238 257 227 213 196 154 123 155 157 154 178
167 156 163 167 168 171 166 162 163 181 193 203 196 197 189 160 138 158 165 156 155 162 177 188 175 180 177 197 238 286 211 172 174 232 275 253 226 212 234 165 137 158 183
151 156 174 171 178 178 180 178 181 197 198 180 175 179 190 176 147 153 165 160 162 174 181 183 177 172 183 192 200 236 252 286 206 192 228 249 289 278 241 204 190 191 216
139 152 174 177 188 185 183 182 186 193 191 182 192 198 195 189 181 170 169 163 171 173 180 185 181 180 190 193 201 198 191 203 222 210 221 232 247 262 268 235 228 212 219
Height
1508 1508 1510 1511 1513 1514 1515 1516 1517 1518 1518 1519 1520 1520 1521 1522 1523 1523 1524 1525 1525 1526 1526 1527 1528 1528 1529 1529 1530 1530 1531 1531 1531 1531 1531 1532 1531 1531 1531 1532 1533 1534 1535
1507 1508 1510 1512 1513 1514 1515 1516 1518 1518 1519 1520 1521 1521 1522 1523 1524 1524 1525 1526 1526 1527 1527 1528 1529 1529 1530 1530 1531 1532 1532 1533 1533 1533 1533 1533 1534 1534 1534 1534 1535 1536 1536
1506 1508 1510 1512 1513 1515 1516 1517 1518 1519 1520 1521 1521 1522 1523 1524 1524 1525 1526 1526 1527 1528 1528 1529 1530 1531 1531 1532 1532 1533 1534 1535 1535 1535 1535 1535 1535 1536 1536 1536 1537 1537 1538
1507 1508 1510 1512 1514 1515 1516 1518 1519 1519 1520 1521 1522 1523 1524 1524 1525 1526 1526 1527 1528 1528 1529 1530 1530 1531 1532 1533 1534 1534 1535 1536 1536 1537 1537 1537 1537 1538 1538 1538 1538 1539 1539
1507 1508 1510 1512 1514 1515 1516 1518 1519 1520 1521 1522 1522 1523 1524 1525 1525 1526 1527 1527 1528 1529 1530 1530 1531 1532 1533 1534 1535 1535 1536 1537 1537 1537 1538 1538 1538 1539 1539 1539 1540 1540 1541
1507 1508 1510 1512 1514 1515 1516 1518 1519 1520 1521 1522 1523 1524 1524 1525 1526 1527 1527 1528 1528 1529 1530 1531 1532 1532 1533 1534 1535 1536 1537 1537 1538 1538 1539 1539 1539 1540 1540 1540 1541 1541 1542
1507 1508 1510 1512 1513 1515 1516 1517 1519 1520 1521 1522 1523 1524 1524 1525 1526 1527 1528 1528 1529 1529 1530 1531 1532 1533 1534 1535 1536 1537 1537 1538 1538 1539 1539 1540 1540 1541 1541 1541 1541 1542 1542
1507 1509 1510 1512 1513 1515 1516 1517 1518 1519 1520 1522 1523 1524 1524 1525 1526 1527 1527 1528 1529 1530 1530 1531 1532 1533 1534 1535 1536 1537 1537 1538 1539 1539 1540 1540 1541 1541 1542 1542 1542 1542 1543
1507 1508 1510 1511 1513 1514 1515 1517 1518 1519 1520 1521 1522 1523 1524 1525 1526 1526 1527 1528 1529 1529 1530 1531 1532 1533 1534 1535 1536 1537 1537 1538 1538 1539 1540 1541 1541 1542 1542 1542 1542 1542 1543
1507 1508 1509 1510 1512 1513 1515 1516 1517 1518 1519 1520 1521 1522 1523 1524 1525 1526 1527 1527 1528 1529 1530 1530 1531 1532 1533 1534 1535 1536 1537 1538 1538 1539 1540 1541 1541 1542 1542 1542 1542 1542 1543
1506 1507 1509 1510 1511 1512 1514 1515 1516 1517 1518 1520 1521 1522 1522 1523 1524 1525 1526 1526 1527 1528 1529 1530 1531 1532 1533 1534 1535 1536 1537 1537 1538 1539 1540 1541 1541 1541 1542 1542 1542 1543 1543
1505 1507 1508 1509 1510 1512 1513 1514 1515 1516 1517 1518 1519 1520 1521 1522 1523 1524 1525 1525 1526 1527 1528 1529 1530 1531 1532 1533 1534 1535 1536 1537 1537 1538 1539 1540 1541 1541 1541 1542 1542 1542 1543
1504 1505 1506 1508 1509 1510 1511 1512 1513 1515 1516 1517 1518 1519 1520 1521 1522 1522 1523 1524 1525 1526 1527 1528 1529 1530 1531 1532 1533 1534 1535 1536 1536 1537 1538 1539 1540 1540 1541 1541 1542 1542 1542
1502 1504 1505 1506 1507 1508 1510 1511 1512 1513 1514 1515 1516 1517 1518 1519 1520 1520 1521 1522 1523 1524 1525 1526 1527 1528 1529 1531 1532 1533 1534 1535 1535 1536 1537 1538 1539 1540 1540 1541 1541 1541 1542
1501 1502 1503 1504 1505 1507 1508 1509 1510 1511 1512 1513 1514 1515 1516 1517 1518 1518 1519 1520 1521 1522 1523 1524 1525 1526 1528 1529 1530 1531 1532 1533 1534 1535 1536 1536 1537 1538 1539 1539 1540 1540 1541
1498 1500 1501 1502 1503 1504 1506 1507 1508 1509 1510 1512 1512 1513 1514 1515 1516 1516 1517 1518 1519 1520 1521 1523 1524 1525 1526 1527 1528 1529 1531 1531 1532 1533 1534 1535 1536 1537 1537 1538 1539 1539 1539
1496 1497 1499 1500 1501 1502 1503 1505 1506 1507 1508 1509 1510 1511 1512 1512 1513 1514 1515 1516 1517 1518 1519 1521 1522 1523 1524 1525 1526 1528 1529 1529 1530 1531 1532 1533 1534 1535 1535 1536 1537 1537 1538
1493 1495 1496 1497 1498 1500 1501 1502 1503 1504 1505 1506 1507 1508 1509 1510 1511 1511 1512 1513 1514 1516 1517 1518 1519 1520 1522 1523 1524 1525 1526 1527 1528 1529 1530 1531 1531 1532 1533 1534 1535 1535 1536
1490 1492 1493 1494 1496 1497 1498 1500 1501 1502 1503 1504 1504 1505 1506 1507 1508 1509 1510 1510 1511 1513 1514 1516 1517 1518 1519 1520 1522 1523 1524 1525 1526 1527 1528 1528 1529 1530 1531 1532 1532 1533 1533
1488 1489 1490 1491 1493 1494 1495 1497 1498 1499 1500 1501 1502 1503 1504 1505 1505 1506 1507 1508 1509 1510 1511 1513 1514 1516 1517 1518 1519 1520 1522 1523 1524 1525 1526 1526 1527 1527 1528 1529 1529 1530 1531
1485 1486 1487 1488 1490 1491 1492 1493 1494 1495 1497 1498 1499 1500 1501 1502 1503 1504 1504 1505 1506 1507 1508 1510 1511 1513 1514 1516 1517 1518 1519 1520 1521 1522 1523 1523 1524 1525 1525 1526 1526 1527 1528
1482 1483 1484 1485 1487 1488 1489 1490 1492 1493 1494 1495 1496 1497 1498 1499 1500 1501 1502 1503 1504 1505 1506 1507 1509 1510 1511 1513 1514 1515 1517 1519 1518 1519 1520 1521 1521 1522 1522 1523 1523 1524 1524
1480 1481 1482 1483 1484 1486 1487 1488 1489 1491 1492 1492 1493 1494 1495 1496 1497 1498 1499 1500 1501 1502 1503 1504 1506 1507 1508 1510 1512 1513 1514 1514 1515 1516 1517 1518 1518 1518 1519 1519 1520 1521 1521
1477 1478 1479 1480 1481 1482 1484 1485 1486 1487 1487 1488 1490 1491 1492 1493 1494 1495 1496 1497 1498 1499 1500 1502 1503 1505 1506 1507 1509 1510 1511 1512 1513 1513 1514 1515 1516 1516 1516 1516 1517 1517 1518
1474 1475 1476 1477 1478 1479 1480 1481 1483 1484 1485 1486 1487 1488 1489 1490 1491 1492 1493 1494 1495 1496 1498 1499 1500 1502 1503 1504 1505 1506 1508 1509 1510 1510 1510 1511 1512 1512 1513 1513 1514 1514 1514
1471 1472 1473 1474 1475 1476 1477 1478 1479 1481 1483 1483 1484 1485 1486 1487 1488 1489 1490 1491 1492 1494 1495 1496 1497 1499 1500 1501 1502 1503 1504 1505 1506 1507 1507 1507 1508 1509 1510 1510 1511 1511 1511